Hourly Data Report for July 04, 2021

BONAVISTA
NEWFOUNDLAND
Current Station Operator: ECCC - MSC

48°40'02.000" N
53°06'51.000" W
25.60 m
8400601
71178
AVA

Download Data

Hourly Data (July 2021)
Hourly Data Report for July 4, 2021
TIME
LST
Temp Definition
°C
Dew Point Definition
°C
Rel Hum Definition
%
Precip. Amount Definition
mm

Wind Dir Definition
10's deg

Wind Spd Definition
km/h
Visibility Definition
km
Stn Press Definition
kPa
Hmdx Definition


Wind Chill Definition


Weather Definition


00:30 9.0 8.0 94 0.0 7 19   101.55     LegendNANA
01:30 8.2 7.5 95 0.0 8 18   101.52     LegendNANA
02:30 7.6 7.1 97 0.0 9 15   101.53     LegendNANA
03:30 7.0 6.7 97 0.0 7 17   101.52     LegendNANA
04:30 7.1 6.8 98 0.0 7 24   101.48     LegendNANA
05:30 7.4 6.9 97 0.0 7 25   101.50     LegendNANA
06:30 8.1 7.0 92 0.0 7 25   101.51     LegendNANA
07:30 8.4 7.2 92 0.0 8 24   101.53     LegendNANA
08:30 8.7 7.2 90 0.0 8 23   101.50     LegendNANA
09:30 8.5 7.0 90 0.0 8 25   101.50     LegendNANA
10:30 8.4 7.1 92 0.0 8 28   101.51     LegendNANA
11:30 8.2 7.0 92 0.0 8 29   101.48     LegendNANA
12:30 8.3 7.2 93 0.0 9 27   101.45     LegendNANA
13:30 8.0 7.0 94 0.0 8 36   101.36     LegendNANA
14:30 8.2 6.9 92 0.0 8 39   101.25     LegendNANA
15:30 8.4 7.1 91 0.0 8 31   101.21     LegendNANA
16:30 8.4 7.5 94 0.3 8 33   101.20     LegendNANA
17:30 8.2 7.5 95 0.0 7 25   101.23     LegendNANA
18:30 8.1 7.5 96 0.2 7 29   101.27     LegendNANA
19:30 8.0 7.5 96 0.0 7 28   101.27     LegendNANA
20:30 8.1 7.7 97 0.0 8 31   101.16     LegendNANA
21:30 8.4 7.9 96 0.0 10 28   101.17     LegendNANA
22:30 8.6 7.8 95 0.0 10 23   101.12     LegendNANA
23:30 8.7 7.8 94 0.0 10 17   101.11     LegendNANA

Notes on Data Quality.

Legend

  • E = Estimated
  • M = Missing
  • NA = Not Available*
  • [empty] = Indicates an unobserved value
Date modified: